"Sample Date","Sample Time","Sample Value","Units","Flow Rate","Number Channels","Micron Size 0","Counts/Channel 0","Micron Size 1","Counts/Channel 1","Micron Size 2","Counts/Channel 2","Micron Size 3","Counts/Channel 3","Micron Size 4","Counts/Channel 4","Micron Size 5","Counts/Channel 5","Micron Size 6","Counts/Channel 6","Micron Size 7","Counts/Channel 7","Micron Size 8","Counts/Channel 8","Micron Size 9","Counts/Channel 9","Micron Size 10","Counts/Channel 10","Micron Size 11","Counts/Channel 11","Micron Size 12","Counts/Channel 12","Micron Size 13","Counts/Channel 13","Micron Size 14","Counts/Channel 14","Micron Size 15","Counts/Channel 15","Micron Size 16","Counts/Channel 16","Micron Size 17","Counts/Channel 17","Micron Size 18","Counts/Channel 18","Micron Size 19","Counts/Channel 19","Micron Size 20","Counts/Channel 20","Micron Size 21","Counts/Channel 21","Micron Size 22","Counts/Channel 22","Micron Size 23","Counts/Channel 23","Micron Size 24","Counts/Channel 24","Micron Size 25","Counts/Channel 25","Micron Size 26","Counts/Channel 26","Micron Size 27","Counts/Channel 27","Micron Size 28","Counts/Channel 28","Micron Size 29","Counts/Channel 29","Micron Size 30","Counts/Channel 30","Micron Size 31","Counts/Channel 31"
"05/07/08","19:00:01",893.000,"cc",28201.471,6,0.100,716.000,0.200,167.000,0.300,10.000,0.500,0,1.000,0,5.000,0
"05/07/08","19:00:07",823.000,"cc",28302.156,6,0.100,646.000,0.200,168.000,0.300,7.000,0.500,1.000,1.000,1.000,5.000,0
"05/07/08","19:00:13",861.000,"cc",28364.791,6,0.100,684.000,0.200,159.000,0.300,17.000,0.500,0,1.000,1.000,5.000,0
"05/07/08","19:00:19",837.000,"cc",28413.262,6,0.100,666.000,0.200,155.000,0.300,15.000,0.500,1.000,1.000,0,5.000,0
"05/07/08","19:00:25",762.000,"cc",28350.270,6,0.100,597.000,0.200,157.000,0.300,8.000,0.500,0,1.000,0,5.000,0
"05/07/08","19:00:31",804.000,"cc",28295.106,6,0.100,638.000,0.200,156.000,0.300,7.000,0.500,3.000,1.000,0,5.000,0
"05/07/08","19:00:37",877.000,"cc",28280.994,6,0.100,696.000,0.200,165.000,0.300,11.000,0.500,4.000,1.000,1.000,5.000,0
"05/07/08","19:00:43",839.000,"cc",28380.338,6,0.100,658.000,0.200,168.000,0.300,10.000,0.500,3.000,1.000,0,5.000,0
"05/07/08","19:00:49",856.000,"cc",28330.203,6,0.100,679.000,0.200,161.000,0.300,14.000,0.500,2.000,1.000,0,5.000,0
"05/07/08","19:00:55",834.000,"cc",28252.330,6,0.100,646.000,0.200,165.000,0.300,18.000,0.500,5.000,1.000,0,5.000,0
"05/07/08","19:01:01",796.000,"cc",28243.885,6,0.100,638.000,0.200,147.000,0.300,8.000,0.500,2.000,1.000,1.000,5.000,0
"05/07/08","19:01:07",813.000,"cc",28345.770,6,0.100,663.000,0.200,148.000,0.300,2.000,0.500,0,1.000,0,5.000,0
"05/07/08","19:01:13",833.000,"cc",28261.602,6,0.100,640.000,0.200,174.000,0.300,18.000,0.500,1.000,1.000,0,5.000,0
"05/07/08","19:01:19",870.000,"cc",28331.920,6,0.100,678.000,0.200,176.000,0.300,13.000,0.500,3.000,1.000,0,5.000,0
"05/07/08","19:01:25",839.000,"cc",28352.816,6,0.100,675.000,0.200,156.000,0.300,7.000,0.500,1.000,1.000,0,5.000,0
"05/07/08","19:01:31",817.000,"cc",28307.469,6,0.100,630.000,0.200,175.000,0.300,10.000,0.500,2.000,1.000,0,5.000,0
"05/07/08","19:01:37",828.000,"cc",28434.871,6,0.100,659.000,0.200,151.000,0.300,14.000,0.500,4.000,1.000,0,5.000,0
"05/07/08","19:01:43",814.000,"cc",28317.020,6,0.100,636.000,0.200,161.000,0.300,15.000,0.500,2.000,1.000,0,5.000,0
"05/07/08","19:01:49",772.000,"cc",28273.445,6,0.100,609.000,0.200,152.000,0.300,7.000,0.500,4.000,1.000,0,5.000,0
"05/07/08","19:01:55",857.000,"cc",28354.432,6,0.100,709.000,0.200,132.000,0.300,12.000,0.500,4.000,1.000,0,5.000,0
"05/07/08","19:02:01",808.000,"cc",28326.176,6,0.100,644.000,0.200,148.000,0.300,14.000,0.500,2.000,1.000,0,5.000,0
"05/07/08","19:02:07",821.000,"cc",28315.742,6,0.100,653.000,0.200,153.000,0.300,13.000,0.500,2.000,1.000,0,5.000,0
"05/07/08","19:02:13",774.000,"cc",28306.356,6,0.100,617.000,0.200,142.000,0.300,13.000,0.500,2.000,1.000,0,5.000,0
"05/07/08","19:02:19",832.000,"cc",28304.775,6,0.100,674.000,0.200,137.000,0.300,19.000,0.500,2.000,1.000,0,5.000,0
"05/07/08","19:02:25",795.000,"cc",28336.557,6,0.100,639.000,0.200,146.000,0.300,7.000,0.500,3.000,1.000,0,5.000,0
"05/07/08","19:02:31",776.000,"cc",28295.361,6,0.100,630.000,0.200,140.000,0.300,4.000,0.500,2.000,1.000,0,5.000,0
"05/07/08","19:02:37",801.000,"cc",28344.291,6,0.100,630.000,0.200,157.000,0.300,13.000,0.500,1.000,1.000,0,5.000,0
"05/07/08","19:02:43",751.000,"cc",28304.049,6,0.100,592.000,0.200,147.000,0.300,12.000,0.500,0,1.000,0,5.000,0
"05/07/08","19:02:49",851.000,"cc",28283.740,6,0.100,673.000,0.200,160.000,0.300,17.000,0.500,0,1.000,1.000,5.000,0
"05/07/08","19:02:55",789.000,"cc",28311.588,6,0.100,620.000,0.200,153.000,0.300,15.000,0.500,1.000,1.000,0,5.000,0
"05/07/08","19:03:01",846.000,"cc",28358.295,6,0.100,673.000,0.200,156.000,0.300,15.000,0.500,2.000,1.000,0,5.000,0
"05/07/08","19:03:07",765.000,"cc",28212.690,6,0.100,599.000,0.200,151.000,0.300,13.000,0.500,2.000,1.000,0,5.000,0
"05/07/08","19:03:13",877.000,"cc",28306.869,6,0.100,682.000,0.200,172.000,0.300,21.000,0.500,2.000,1.000,0,5.000,0
"05/07/08","19:03:19",832.000,"cc",28345.586,6,0.100,668.000,0.200,151.000,0.300,9.000,0.500,3.000,1.000,1.000,5.000,0
"05/07/08","19:03:25",842.000,"cc",28338.100,6,0.100,650.000,0.200,177.000,0.300,13.000,0.500,2.000,1.000,0,5.000,0
"05/07/08","19:03:31",872.000,"cc",28298.395,6,0.100,706.000,0.200,152.000,0.300,10.000,0.500,3.000,1.000,1.000,5.000,0
"05/07/08","19:03:37",827.000,"cc",28268.299,6,0.100,677.000,0.200,135.000,0.300,15.000,0.500,0,1.000,0,5.000,0
"05/07/08","19:03:43",807.000,"cc",28368.799,6,0.100,651.000,0.200,150.000,0.300,4.000,0.500,1.000,1.000,1.000,5.000,0
"05/07/08","19:03:49",792.000,"cc",28329.703,6,0.100,621.000,0.200,157.000,0.300,13.000,0.500,1.000,1.000,0,5.000,0
"05/07/08","19:03:55",836.000,"cc",28324.920,6,0.100,651.000,0.200,176.000,0.300,8.000,0.500,1.000,1.000,0,5.000,0
"05/07/08","19:04:01",826.000,"cc",28310.943,6,0.100,638.000,0.200,170.000,0.300,15.000,0.500,3.000,1.000,0,5.000,0
"05/07/08","19:04:07",834.000,"cc",28261.840,6,0.100,643.000,0.200,177.000,0.300,11.000,0.500,3.000,1.000,0,5.000,0
"05/07/08","19:04:13",877.000,"cc",28377.660,6,0.100,711.000,0.200,153.000,0.300,12.000,0.500,1.000,1.000,0,5.000,0
"05/07/08","19:04:19",789.000,"cc",28358.842,6,0.100,627.000,0.200,149.000,0.300,10.000,0.500,3.000,1.000,0,5.000,0
"05/07/08","19:04:25",865.000,"cc",28310.365,6,0.100,674.000,0.200,173.000,0.300,15.000,0.500,3.000,1.000,0,5.000,0
"05/07/08","19:04:31",825.000,"cc",28311.842,6,0.100,670.000,0.200,143.000,0.300,11.000,0.500,1.000,1.000,0,5.000,0
"05/07/08","19:04:37",827.000,"cc",28254.697,6,0.100,654.000,0.200,155.000,0.300,13.000,0.500,4.000,1.000,1.000,5.000,0
"05/07/08","19:04:43",816.000,"cc",28223.065,6,0.100,674.000,0.200,135.000,0.300,3.000,0.500,4.000,1.000,0,5.000,0
"05/07/08","19:04:49",829.000,"cc",28344.959,6,0.100,654.000,0.200,166.000,0.300,8.000,0.500,1.000,1.000,0,5.000,0
"05/07/08","19:04:55",806.000,"cc",28357.674,6,0.100,656.000,0.200,140.000,0.300,10.000,0.500,0,1.000,0,5.000,0
"05/07/08","19:05:01",830.000,"cc",28308.514,6,0.100,643.000,0.200,167.000,0.300,17.000,0.500,2.000,1.000,1.000,5.000,0
"05/07/08","19:05:07",809.000,"cc",28458.768,6,0.100,647.000,0.200,152.000,0.300,7.000,0.500,3.000,1.000,0,5.000,0
"05/07/08","19:05:13",821.000,"cc",28301.043,6,0.100,652.000,0.200,150.000,0.300,14.000,0.500,5.000,1.000,0,5.000,0
"05/07/08","19:05:19",798.000,"cc",28271.051,6,0.100,634.000,0.200,139.000,0.300,21.000,0.500,4.000,1.000,0,5.000,0
"05/07/08","19:05:25",844.000,"cc",28257.123,6,0.100,672.000,0.200,160.000,0.300,12.000,0.500,0,1.000,0,5.000,0
"05/07/08","19:05:31",821.000,"cc",28291.402,6,0.100,632.000,0.200,172.000,0.300,14.000,0.500,2.000,1.000,1.000,5.000,0
"05/07/08","19:05:37",833.000,"cc",28302.418,6,0.100,650.000,0.200,172.000,0.300,8.000,0.500,2.000,1.000,1.000,5.000,0
"05/07/08","19:05:43",812.000,"cc",28341.434,6,0.100,667.000,0.200,133.000,0.300,10.000,0.500,2.000,1.000,0,5.000,0
"05/07/08","19:05:49",846.000,"cc",28348.131,6,0.100,680.000,0.200,152.000,0.300,11.000,0.500,3.000,1.000,0,5.000,0
"05/07/08","19:05:55",824.000,"cc",28320.691,6,0.100,657.000,0.200,159.000,0.300,6.000,0.500,2.000,1.000,0,5.000,0
"05/07/08","19:06:01",828.000,"cc",28281.871,6,0.100,654.000,0.200,162.000,0.300,12.000,0.500,0,1.000,0,5.000,0
"05/07/08","19:06:07",785.000,"cc",28308.272,6,0.100,603.000,0.200,166.000,0.300,14.000,0.500,2.000,1.000,0,5.000,0
"05/07/08","19:06:13",837.000,"cc",28381.322,6,0.100,692.000,0.200,135.000,0.300,10.000,0.500,0,1.000,0,5.000,0
"05/07/08","19:06:19",829.000,"cc",28326.617,6,0.100,673.000,0.200,142.000,0.300,11.000,0.500,3.000,1.000,0,5.000,0
"05/07/08","19:06:25",860.000,"cc",28327.973,6,0.100,673.000,0.200,167.000,0.300,20.000,0.500,0,1.000,0,5.000,0
"05/07/08","19:06:31",794.000,"cc",28273.465,6,0.100,624.000,0.200,159.000,0.300,6.000,0.500,5.000,1.000,0,5.000,0
"05/07/08","19:06:37",858.000,"cc",28241.182,6,0.100,671.000,0.200,167.000,0.300,14.000,0.500,5.000,1.000,1.000,5.000,0
"05/07/08","19:06:43",840.000,"cc",28377.744,6,0.100,659.000,0.200,171.000,0.300,7.000,0.500,3.000,1.000,0,5.000,0
"05/07/08","19:06:49",813.000,"cc",28289.764,6,0.100,640.000,0.200,159.000,0.300,12.000,0.500,2.000,1.000,0,5.000,0
"05/07/08","19:06:55",885.000,"cc",28341.211,6,0.100,689.000,0.200,184.000,0.300,7.000,0.500,5.000,1.000,0,5.000,0
"05/07/08","19:07:01",899.000,"cc",28330.883,6,0.100,708.000,0.200,177.000,0.300,13.000,0.500,1.000,1.000,0,5.000,0
"05/07/08","19:07:07",846.000,"cc",28288.531,6,0.100,672.000,0.200,157.000,0.300,13.000,0.500,3.000,1.000,1.000,5.000,0
"05/07/08","19:07:13",891.000,"cc",28261.508,6,0.100,699.000,0.200,181.000,0.300,10.000,0.500,1.000,1.000,0,5.000,0
"05/07/08","19:07:19",913.000,"cc",28269.139,6,0.100,728.000,0.200,170.000,0.300,11.000,0.500,4.000,1.000,0,5.000,0
"05/07/08","19:07:25",826.000,"cc",28393.092,6,0.100,663.000,0.200,157.000,0.300,5.000,0.500,1.000,1.000,0,5.000,0
"05/07/08","19:07:31",869.000,"cc",28340.867,6,0.100,690.000,0.200,168.000,0.300,10.000,0.500,1.000,1.000,0,5.000,0
"05/07/08","19:07:37",806.000,"cc",28300.984,6,0.100,664.000,0.200,134.000,0.300,6.000,0.500,2.000,1.000,0,5.000,0
"05/07/08","19:07:43",826.000,"cc",28360.346,6,0.100,665.000,0.200,150.000,0.300,9.000,0.500,2.000,1.000,0,5.000,0
"05/07/08","19:07:49",905.000,"cc",28281.170,6,0.100,726.000,0.200,163.000,0.300,15.000,0.500,1.000,1.000,0,5.000,0
"05/07/08","19:07:55",879.000,"cc",28340.434,6,0.100,699.000,0.200,164.000,0.300,15.000,0.500,1.000,1.000,0,5.000,0
"05/07/08","19:08:01",775.000,"cc",28311.348,6,0.100,607.000,0.200,156.000,0.300,10.000,0.500,2.000,1.000,0,5.000,0
"05/07/08","19:08:07",804.000,"cc",28247.998,6,0.100,635.000,0.200,153.000,0.300,16.000,0.500,0,1.000,0,5.000,0
"05/07/08","19:08:13",841.000,"cc",28320.820,6,0.100,666.000,0.200,158.000,0.300,15.000,0.500,1.000,1.000,1.000,5.000,0
"05/07/08","19:08:19",865.000,"cc",28362.281,6,0.100,697.000,0.200,158.000,0.300,9.000,0.500,1.000,1.000,0,5.000,0
"05/07/08","19:08:25",826.000,"cc",28308.828,6,0.100,634.000,0.200,181.000,0.300,9.000,0.500,2.000,1.000,0,5.000,0
"05/07/08","19:08:31",908.000,"cc",28391.725,6,0.100,731.000,0.200,166.000,0.300,9.000,0.500,2.000,1.000,0,5.000,0
"05/07/08","19:08:37",829.000,"cc",28242.674,6,0.100,675.000,0.200,141.000,0.300,12.000,0.500,1.000,1.000,0,5.000,0
"05/07/08","19:08:43",924.000,"cc",28278.492,6,0.100,754.000,0.200,147.000,0.300,20.000,0.500,3.000,1.000,0,5.000,0
"05/07/08","19:08:49",833.000,"cc",28335.984,6,0.100,664.000,0.200,153.000,0.300,14.000,0.500,2.000,1.000,0,5.000,0
"05/07/08","19:08:55",833.000,"cc",28291.875,6,0.100,685.000,0.200,132.000,0.300,14.000,0.500,2.000,1.000,0,5.000,0
"05/07/08","19:09:01",813.000,"cc",28313.725,6,0.100,645.000,0.200,159.000,0.300,9.000,0.500,0,1.000,0,5.000,0
"05/07/08","19:09:07",807.000,"cc",28352.041,6,0.100,655.000,0.200,141.000,0.300,7.000,0.500,4.000,1.000,0,5.000,0
"05/07/08","19:09:13",817.000,"cc",28304.141,6,0.100,648.000,0.200,156.000,0.300,12.000,0.500,1.000,1.000,0,5.000,0
"05/07/08","19:09:19",851.000,"cc",28313.207,6,0.100,676.000,0.200,162.000,0.300,11.000,0.500,1.000,1.000,1.000,5.000,0
"05/07/08","19:09:25",802.000,"cc",28375.352,6,0.100,637.000,0.200,152.000,0.300,8.000,0.500,5.000,1.000,0,5.000,0
"05/07/08","19:09:31",849.000,"cc",28337.750,6,0.100,675.000,0.200,159.000,0.300,13.000,0.500,2.000,1.000,0,5.000,0
"05/07/08","19:09:37",880.000,"cc",28259.100,6,0.100,699.000,0.200,168.000,0.300,8.000,0.500,4.000,1.000,1.000,5.000,0
"05/07/08","19:09:43",875.000,"cc",28333.828,6,0.100,704.000,0.200,159.000,0.300,10.000,0.500,2.000,1.000,0,5.000,0
"05/07/08","19:09:49",888.000,"cc",28359.375,6,0.100,702.000,0.200,175.000,0.300,10.000,0.500,1.000,1.000,0,5.000,0
"05/07/08","19:09:55",853.000,"cc",28263.789,6,0.100,693.000,0.200,143.000,0.300,16.000,0.500,1.000,1.000,0,5.000,0
"05/07/08","19:10:01",853.000,"cc",28351.736,6,0.100,689.000,0.200,151.000,0.300,12.000,0.500,1.000,1.000,0,5.000,0
"05/07/08","19:10:07",829.000,"cc",28307.647,6,0.100,679.000,0.200,137.000,0.300,11.000,0.500,2.000,1.000,0,5.000,0
"05/07/08","19:10:13",817.000,"cc",28258.969,6,0.100,650.000,0.200,159.000,0.300,7.000,0.500,1.000,1.000,0,5.000,0
"05/07/08","19:10:19",863.000,"cc",28289.988,6,0.100,688.000,0.200,161.000,0.300,11.000,0.500,3.000,1.000,0,5.000,0
"05/07/08","19:10:25",873.000,"cc",28318.270,6,0.100,710.000,0.200,148.000,0.300,13.000,0.500,2.000,1.000,0,5.000,0
"05/07/08","19:10:31",840.000,"cc",28287.859,6,0.100,684.000,0.200,150.000,0.300,5.000,0.500,1.000,1.000,0,5.000,0
"05/07/08","19:10:37",827.000,"cc",28275.574,6,0.100,665.000,0.200,153.000,0.300,9.000,0.500,0,1.000,0,5.000,0
"05/07/08","19:10:43",857.000,"cc",28373.438,6,0.100,709.000,0.200,140.000,0.300,8.000,0.500,0,1.000,0,5.000,0
"05/07/08","19:10:49",867.000,"cc",28378.789,6,0.100,707.000,0.200,149.000,0.300,9.000,0.500,2.000,1.000,0,5.000,0
"05/07/08","19:10:55",866.000,"cc",28293.690,6,0.100,673.000,0.200,176.000,0.300,13.000,0.500,3.000,1.000,1.000,5.000,0
"05/07/08","19:11:01",854.000,"cc",28299.949,6,0.100,677.000,0.200,166.000,0.300,8.000,0.500,2.000,1.000,1.000,5.000,0
"05/07/08","19:11:07",860.000,"cc",28268.461,6,0.100,686.000,0.200,165.000,0.300,7.000,0.500,2.000,1.000,0,5.000,0
"05/07/08","19:11:13",927.000,"cc",28322.547,6,0.100,755.000,0.200,155.000,0.300,16.000,0.500,1.000,1.000,0,5.000,0
"05/07/08","19:11:19",841.000,"cc",28315.389,6,0.100,648.000,0.200,180.000,0.300,10.000,0.500,2.000,1.000,1.000,5.000,0
"05/07/08","19:11:25",887.000,"cc",28256.207,6,0.100,704.000,0.200,166.000,0.300,14.000,0.500,2.000,1.000,1.000,5.000,0
"05/07/08","19:11:31",894.000,"cc",28345.045,6,0.100,728.000,0.200,149.000,0.300,12.000,0.500,5.000,1.000,0,5.000,0
"05/07/08","19:11:37",873.000,"cc",28326.180,6,0.100,708.000,0.200,153.000,0.300,10.000,0.500,2.000,1.000,0,5.000,0
"05/07/08","19:11:43",883.000,"cc",28324.565,6,0.100,710.000,0.200,148.000,0.300,20.000,0.500,5.000,1.000,0,5.000,0
"05/07/08","19:11:49",874.000,"cc",28348.359,6,0.100,708.000,0.200,153.000,0.300,13.000,0.500,0,1.000,0,5.000,0
"05/07/08","19:11:55",882.000,"cc",28332.363,6,0.100,709.000,0.200,160.000,0.300,10.000,0.500,3.000,1.000,0,5.000,0
"05/07/08","19:12:01",897.000,"cc",28254.893,6,0.100,711.000,0.200,175.000,0.300,11.000,0.500,0,1.000,0,5.000,0
"05/07/08","19:12:07",948.000,"cc",28337.295,6,0.100,757.000,0.200,174.000,0.300,14.000,0.500,3.000,1.000,0,5.000,0
"05/07/08","19:12:13",877.000,"cc",28383.721,6,0.100,690.000,0.200,172.000,0.300,12.000,0.500,2.000,1.000,1.000,5.000,0
"05/07/08","19:12:19",944.000,"cc",28373.211,6,0.100,750.000,0.200,181.000,0.300,13.000,0.500,0,1.000,0,5.000,0
"05/07/08","19:12:25",847.000,"cc",28324.022,6,0.100,675.000,0.200,159.000,0.300,11.000,0.500,1.000,1.000,1.000,5.000,0
"05/07/08","19:12:31",862.000,"cc",28265.346,6,0.100,660.000,0.200,185.000,0.300,13.000,0.500,4.000,1.000,0,5.000,0
"05/07/08","19:12:37",941.000,"cc",28294.535,6,0.100,748.000,0.200,178.000,0.300,13.000,0.500,2.000,1.000,0,5.000,0
"05/07/08","19:12:43",986.000,"cc",28325.113,6,0.100,776.000,0.200,189.000,0.300,18.000,0.500,1.000,1.000,2.000,5.000,0
"05/07/08","19:12:49",935.000,"cc",28292.604,6,0.100,726.000,0.200,191.000,0.300,16.000,0.500,2.000,1.000,0,5.000,0
"05/07/08","19:12:55",947.000,"cc",28299.369,6,0.100,741.000,0.200,183.000,0.300,19.000,0.500,4.000,1.000,0,5.000,0
"05/07/08","19:13:01",966.000,"cc",28319.428,6,0.100,753.000,0.200,198.000,0.300,10.000,0.500,5.000,1.000,0,5.000,0
"05/07/08","19:13:07",968.000,"cc",28329.637,6,0.100,757.000,0.200,196.000,0.300,11.000,0.500,4.000,1.000,0,5.000,0
"05/07/08","19:13:13",895.000,"cc",28298.398,6,0.100,713.000,0.200,168.000,0.300,14.000,0.500,0,1.000,0,5.000,0
"05/07/08","19:13:19",977.000,"cc",28316.557,6,0.100,768.000,0.200,191.000,0.300,16.000,0.500,2.000,1.000,0,5.000,0
"05/07/08","19:13:25",906.000,"cc",28369.148,6,0.100,717.000,0.200,177.000,0.300,11.000,0.500,1.000,1.000,0,5.000,0
"05/07/08","19:13:31",900.000,"cc",28279.400,6,0.100,704.000,0.200,181.000,0.300,13.000,0.500,2.000,1.000,0,5.000,0
"05/07/08","19:13:37",913.000,"cc",28281.180,6,0.100,726.000,0.200,172.000,0.300,14.000,0.500,1.000,1.000,0,5.000,0
"05/07/08","19:13:43",871.000,"cc",28332.117,6,0.100,693.000,0.200,167.000,0.300,10.000,0.500,1.000,1.000,0,5.000,0
"05/07/08","19:13:49",928.000,"cc",28310.938,6,0.100,729.000,0.200,186.000,0.300,11.000,0.500,2.000,1.000,0,5.000,0
"05/07/08","19:13:55",904.000,"cc",28276.875,6,0.100,724.000,0.200,170.000,0.300,9.000,0.500,1.000,1.000,0,5.000,0
"05/07/08","19:14:01",939.000,"cc",28343.395,6,0.100,750.000,0.200,180.000,0.300,9.000,0.500,0,1.000,0,5.000,0
"05/07/08","19:14:07",977.000,"cc",28321.869,6,0.100,768.000,0.200,192.000,0.300,13.000,0.500,4.000,1.000,0,5.000,0
"05/07/08","19:14:13",930.000,"cc",28420.045,6,0.100,725.000,0.200,194.000,0.300,7.000,0.500,4.000,1.000,0,5.000,0
"05/07/08","19:14:19",913.000,"cc",28330.522,6,0.100,728.000,0.200,174.000,0.300,8.000,0.500,2.000,1.000,1.000,5.000,0
"05/07/08","19:14:25",938.000,"cc",28340.072,6,0.100,737.000,0.200,191.000,0.300,7.000,0.500,3.000,1.000,0,5.000,0
"05/07/08","19:14:31",930.000,"cc",28341.590,6,0.100,752.000,0.200,163.000,0.300,14.000,0.500,0,1.000,1.000,5.000,0
"05/07/08","19:14:37",872.000,"cc",28300.240,6,0.100,703.000,0.200,158.000,0.300,11.000,0.500,0,1.000,0,5.000,0
"05/07/08","19:14:43",970.000,"cc",28319.371,6,0.100,770.000,0.200,190.000,0.300,10.000,0.500,0,1.000,0,5.000,0
"05/07/08","19:14:49",894.000,"cc",28323.506,6,0.100,709.000,0.200,165.000,0.300,15.000,0.500,4.000,1.000,1.000,5.000,0
"05/07/08","19:14:55",957.000,"cc",28326.619,6,0.100,754.000,0.200,186.000,0.300,15.000,0.500,1.000,1.000,1.000,5.000,0
"05/07/08","19:15:01",998.000,"cc",28292.012,6,0.100,795.000,0.200,188.000,0.300,13.000,0.500,1.000,1.000,1.000,5.000,0
"05/07/08","19:15:07",940.000,"cc",28303.715,6,0.100,783.000,0.200,145.000,0.300,10.000,0.500,1.000,1.000,1.000,5.000,0
"05/07/08","19:15:13",932.000,"cc",28276.473,6,0.100,730.000,0.200,187.000,0.300,15.000,0.500,0,1.000,0,5.000,0
"05/07/08","19:15:19",955.000,"cc",28343.639,6,0.100,745.000,0.200,190.000,0.300,16.000,0.500,4.000,1.000,0,5.000,0
"05/07/08","19:15:25",931.000,"cc",28305.494,6,0.100,740.000,0.200,171.000,0.300,18.000,0.500,0,1.000,2.000,5.000,0
"05/07/08","19:15:31",921.000,"cc",28374.815,6,0.100,740.000,0.200,167.000,0.300,12.000,0.500,2.000,1.000,0,5.000,0
"05/07/08","19:15:37",909.000,"cc",28342.117,6,0.100,739.000,0.200,154.000,0.300,14.000,0.500,2.000,1.000,0,5.000,0
"05/07/08","19:15:43",896.000,"cc",28262.494,6,0.100,725.000,0.200,156.000,0.300,13.000,0.500,1.000,1.000,1.000,5.000,0
"05/07/08","19:15:49",848.000,"cc",28221.895,6,0.100,696.000,0.200,140.000,0.300,9.000,0.500,3.000,1.000,0,5.000,0
"05/07/08","19:15:55",933.000,"cc",28293.152,6,0.100,747.000,0.200,167.000,0.300,14.000,0.500,5.000,1.000,0,5.000,0
"05/07/08","19:16:01",1001.000,"cc",28354.803,6,0.100,797.000,0.200,179.000,0.300,19.000,0.500,5.000,1.000,1.000,5.000,0
"05/07/08","19:16:07",947.000,"cc",28273.676,6,0.100,759.000,0.200,172.000,0.300,14.000,0.500,2.000,1.000,0,5.000,0
"05/07/08","19:16:13",959.000,"cc",28346.930,6,0.100,760.000,0.200,184.000,0.300,12.000,0.500,3.000,1.000,0,5.000,0
"05/07/08","19:16:19",919.000,"cc",28295.951,6,0.100,743.000,0.200,165.000,0.300,11.000,0.500,0,1.000,0,5.000,0
"05/07/08","19:16:25",938.000,"cc",28332.549,6,0.100,752.000,0.200,178.000,0.300,6.000,0.500,2.000,1.000,0,5.000,0
"05/07/08","19:16:31",920.000,"cc",28335.772,6,0.100,733.000,0.200,172.000,0.300,14.000,0.500,0,1.000,1.000,5.000,0
"05/07/08","19:16:37",960.000,"cc",28260.346,6,0.100,741.000,0.200,207.000,0.300,9.000,0.500,3.000,1.000,0,5.000,0
"05/07/08","19:16:43",905.000,"cc",28379.498,6,0.100,710.000,0.200,181.000,0.300,13.000,0.500,1.000,1.000,0,5.000,0
"05/07/08","19:16:49",923.000,"cc",28310.957,6,0.100,743.000,0.200,164.000,0.300,13.000,0.500,3.000,1.000,0,5.000,0
"05/07/08","19:16:55",921.000,"cc",28290.147,6,0.100,740.000,0.200,170.000,0.300,10.000,0.500,1.000,1.000,0,5.000,0
"05/07/08","19:17:01",964.000,"cc",28323.012,6,0.100,755.000,0.200,197.000,0.300,11.000,0.500,1.000,1.000,0,5.000,0
"05/07/08","19:17:07",928.000,"cc",28285.416,6,0.100,740.000,0.200,170.000,0.300,13.000,0.500,5.000,1.000,0,5.000,0
"05/07/08","19:17:13",862.000,"cc",28313.867,6,0.100,682.000,0.200,167.000,0.300,10.000,0.500,3.000,1.000,0,5.000,0
"05/07/08","19:17:19",923.000,"cc",28331.502,6,0.100,737.000,0.200,173.000,0.300,13.000,0.500,0,1.000,0,5.000,0
"05/07/08","19:17:25",907.000,"cc",28318.240,6,0.100,722.000,0.200,176.000,0.300,9.000,0.500,0,1.000,0,5.000,0
"05/07/08","19:17:31",909.000,"cc",28353.121,6,0.100,715.000,0.200,179.000,0.300,14.000,0.500,1.000,1.000,0,5.000,0
"05/07/08","19:17:37",905.000,"cc",28364.674,6,0.100,712.000,0.200,184.000,0.300,9.000,0.500,0,1.000,0,5.000,0
"05/07/08","19:17:43",923.000,"cc",28356.420,6,0.100,732.000,0.200,174.000,0.300,15.000,0.500,1.000,1.000,1.000,5.000,0
"05/07/08","19:17:49",949.000,"cc",28337.260,6,0.100,759.000,0.200,176.000,0.300,12.000,0.500,2.000,1.000,0,5.000,0
"05/07/08","19:17:55",969.000,"cc",28344.492,6,0.100,763.000,0.200,187.000,0.300,16.000,0.500,3.000,1.000,0,5.000,0
"05/07/08","19:18:01",881.000,"cc",28245.504,6,0.100,688.000,0.200,177.000,0.300,14.000,0.500,2.000,1.000,0,5.000,0
"05/07/08","19:18:07",900.000,"cc",28296.084,6,0.100,703.000,0.200,182.000,0.300,11.000,0.500,3.000,1.000,1.000,5.000,0
"05/07/08","19:18:13",937.000,"cc",28295.430,6,0.100,726.000,0.200,201.000,0.300,8.000,0.500,2.000,1.000,0,5.000,0
"05/07/08","19:18:19",893.000,"cc",28315.453,6,0.100,713.000,0.200,166.000,0.300,12.000,0.500,1.000,1.000,1.000,5.000,0
"05/07/08","19:18:25",991.000,"cc",28332.055,6,0.100,799.000,0.200,182.000,0.300,8.000,0.500,2.000,1.000,0,5.000,0
"05/07/08","19:18:31",893.000,"cc",28302.055,6,0.100,710.000,0.200,173.000,0.300,9.000,0.500,1.000,1.000,0,5.000,0
"05/07/08","19:18:37",888.000,"cc",28275.762,6,0.100,693.000,0.200,185.000,0.300,7.000,0.500,3.000,1.000,0,5.000,0
"05/07/08","19:18:43",965.000,"cc",28436.404,6,0.100,762.000,0.200,184.000,0.300,17.000,0.500,2.000,1.000,0,5.000,0
"05/07/08","19:18:49",845.000,"cc",28318.346,6,0.100,687.000,0.200,152.000,0.300,5.000,0.500,1.000,1.000,0,5.000,0
"05/07/08","19:18:55",915.000,"cc",28305.219,6,0.100,772.000,0.200,134.000,0.300,7.000,0.500,2.000,1.000,0,5.000,0
"05/07/08","19:19:01",802.000,"cc",28297.625,6,0.100,629.000,0.200,161.000,0.300,8.000,0.500,4.000,1.000,0,5.000,0
"05/07/08","19:19:07",862.000,"cc",28306.225,6,0.100,698.000,0.200,150.000,0.300,13.000,0.500,1.000,1.000,0,5.000,0
"05/07/08","19:19:13",929.000,"cc",28281.152,6,0.100,738.000,0.200,179.000,0.300,10.000,0.500,2.000,1.000,0,5.000,0
"05/07/08","19:19:19",886.000,"cc",28321.508,6,0.100,702.000,0.200,170.000,0.300,12.000,0.500,2.000,1.000,0,5.000,0